Tracking 28888 objects as of 22-May-2024
HD Live streaming from Space Station
objects crossing your sky now

BRIO

Track BRIO now!
10-day predictions


NORAD ID: 43813
Int'l Code: 2018-099BH
Perigee: 525.2 km
Apogee: 534.5 km
Inclination: 97.6 °
Period: 95.1 minutes
Semi major axis: 6900 km
RCS: Unknown
Launch date: December 3, 2018
Source: United States (US)
Launch site: AIR FORCE WESTERN TEST RANGE (AFWTR)
Your satellite tracking list
Your tracking list is empty




NASA's NSSDC Master Catalog

Two Line Element Set (TLE):
1 43813U 18099BH  24142.88072868  .00029672  00000-0  16126-2 0  9990
2 43813  97.5692 211.3838 0006780  33.3769 326.7889 15.14424763298703
Source of the keplerian elements: AFSPC